TimeMDT,TemperatureF,Dew PointF,Humidity,Sea Level PressureIn,VisibilityMPH,Wind Direction,Wind SpeedMPH,Gust SpeedMPH,PrecipitationIn,Events,Conditions,WindDirDegrees,DateUTC
12:51 AM,64.0,52.0,65,30.02,10.0,West,8.1,-,N/A,,Scattered Clouds,260,2013-06-27 06:51:00
1:51 AM,62.1,51.1,67,30.00,10.0,WSW,5.8,-,0.00,,Partly Cloudy,250,2013-06-27 07:51:00
2:51 AM,62.1,52.0,70,30.01,10.0,West,3.5,-,N/A,,Clear,280,2013-06-27 08:51:00
3:51 AM,61.0,50.0,67,30.01,10.0,West,4.6,-,N/A,,Clear,280,2013-06-27 09:51:00
4:51 AM,60.1,48.9,67,30.01,10.0,West,3.5,-,N/A,,Clear,260,2013-06-27 10:51:00
5:51 AM,57.0,51.1,81,30.03,10.0,Calm,Calm,-,N/A,,Clear,0,2013-06-27 11:51:00
6:51 AM,63.0,52.0,67,30.04,10.0,West,5.8,-,N/A,,Clear,260,2013-06-27 12:51:00
7:51 AM,68.0,53.1,59,30.05,10.0,West,10.4,-,N/A,,Clear,270,2013-06-27 13:51:00
8:51 AM,71.1,51.1,49,30.07,10.0,WNW,15.0,20.7,N/A,,Clear,290,2013-06-27 14:51:00
9:51 AM,73.9,51.1,45,30.06,10.0,WNW,13.8,-,N/A,,Clear,290,2013-06-27 15:51:00
10:51 AM,75.9,50.0,40,30.06,10.0,WNW,13.8,-,N/A,,Clear,300,2013-06-27 16:51:00
11:51 AM,77.0,50.0,39,30.07,10.0,WNW,13.8,27.6,N/A,,Clear,300,2013-06-27 17:51:00
12:51 PM,78.1,50.0,37,30.07,10.0,WNW,17.3,23.0,N/A,,Clear,290,2013-06-27 18:51:00
1:51 PM,78.1,48.9,36,30.08,10.0,WNW,15.0,24.2,N/A,,Clear,300,2013-06-27 19:51:00
2:51 PM,78.1,50.0,37,30.09,10.0,WNW,19.6,24.2,N/A,,Clear,300,2013-06-27 20:51:00
3:51 PM,80.1,50.0,35,30.08,10.0,NW,18.4,25.3,N/A,,Partly Cloudy,320,2013-06-27 21:51:00
4:51 PM,79.0,48.9,35,30.09,10.0,NNW,20.7,24.2,N/A,,Clear,330,2013-06-27 22:51:00
5:51 PM,78.1,46.0,32,30.09,10.0,NW,18.4,27.6,N/A,,Clear,320,2013-06-27 23:51:00
6:51 PM,75.9,46.0,35,30.10,10.0,NNW,15.0,-,N/A,,Clear,330,2013-06-28 00:51:00
7:51 PM,73.0,48.0,41,30.10,10.0,NNW,10.4,-,N/A,,Clear,330,2013-06-28 01:51:00
8:51 PM,68.0,48.9,50,30.11,10.0,NNW,8.1,-,N/A,,Clear,340,2013-06-28 02:51:00
9:51 PM,64.0,50.0,60,30.14,10.0,Calm,Calm,-,N/A,,Clear,0,2013-06-28 03:51:00
10:51 PM,62.1,48.9,62,30.15,10.0,Calm,Calm,-,N/A,,Clear,0,2013-06-28 04:51:00
11:51 PM,59.0,50.0,72,30.15,10.0,Calm,Calm,-,N/A,,Clear,0,2013-06-28 05:51:00